User: anonymous   Login
Location: Terra Rouge Observatory
(46.0000°N, 62.7500°W)
Time: 00:06:33
(UTC-04:00)
Language:

NOSS 3-1 (A) - Orbit

View from above orbital plane
View from above orbital plane
View from above satellite
View from above satellite

Ground track
Ground track

The orbit data is extracted from the following two-line orbital elements,

1 26905U 01040A   15023.22402448 0.00000000  00000-0  00000-0 0    07
2 26905  63.4260 108.6665 0290000 357.5350   2.4650 13.40708425    07
Epoch (UTC): 23 January 2015 05:22:35
Eccentricity: 0.0290000
inclination: 63.4260°
perigee height: 889 km
apogee height: 1323 km
right ascension of ascending node: 108.6665°
argument of perigee: 357.5350°
revolutions per day: 13.40708425
mean anomaly at epoch: 2.4650°
orbit number at epoch: 0

The dashed part of the orbit path shows where the satellite is in the earth's shadow,  

DLR